DW5852 Weather Reports


Display with metric or nautical units.
time (UTC)temp
F
wind
direction
speed
MPH
gust
MPH
rain 1hr
in
rain 24hr
in
rain mn
in
humidity
%
barometer
mb
20260504034213 56 250 0.0 0.0 0.00 0.00 0.00 35 1025.5
20260504033713 55 225 0.0 0.0 0.00 0.00 0.00 34 1025.4
20260504033210 55 276 0.0 0.0 0.00 0.00 0.00 33 1025.5
20260504032710 55 252 0.0 0.0 0.00 0.00 0.00 32 1025.4
20260504032213 56 229 0.0 0.0 0.00 0.00 0.00 31 1025.3
20260504031710 56 235 0.0 0.0 0.00 0.00 0.00 30 1025.2
20260504031213 56 234 0.0 0.0 0.00 0.00 0.00 30 1025.0
20260504030713 57 284 0.0 0.0 0.00 0.00 0.00 30 1024.9
20260504030210 57 218 0.0 0.0 0.00 0.00 0.00 31 1024.8
20260504025713 57 226 0.0 0.0 0.00 0.00 0.00 30 1024.7
20260504025213 57 190 0.0 0.0 0.00 0.00 0.00 29 1024.5
20260504024710 57 226 0.0 0.0 0.00 0.00 0.00 26 1024.4
20260504024213 57 183 0.0 0.0 0.00 0.00 0.00 23 1024.4
20260504023710 58 203 0.0 0.0 0.00 0.00 0.00 22 1024.3
20260504023210 58 233 0.0 0.0 0.00 0.00 0.00 21 1024.3
20260504022710 59 240 0.0 0.0 0.00 0.00 0.00 21 1024.1
20260504022210 60 225 0.0 0.0 0.00 0.00 0.00 20 1024.0
20260504021710 60 248 0.0 0.0 0.00 0.00 0.00 19 1023.8
20260504021210 60 253 0.0 0.0 0.00 0.00 0.00 19 1023.8
20260504020713 61 250 0.0 0.0 0.00 0.00 0.00 19 1023.7
20260504015710 61 221 0.0 0.0 0.00 0.00 0.00 18 1023.5
20260504015210 61 257 0.0 0.0 0.00 0.00 0.00 18 1023.4
20260504014710 62 250 0.0 0.0 0.00 0.00 0.00 18 1023.2
20260504014213 62 252 0.0 0.0 0.00 0.00 0.00 17 1023.2
20260504013710 63 275 0.0 0.0 0.00 0.00 0.00 17 1023.1
20260504013210 63 253 0.0 0.0 0.00 0.00 0.00 17 1023.0
20260504012710 64 259 0.0 0.0 0.00 0.00 0.00 17 1022.9
20260504012213 64 229 0.0 0.0 0.00 0.00 0.00 16 1022.8
20260504011710 65 256 0.0 0.0 0.00 0.00 0.00 17 1022.8
20260504011213 66 240 0.0 0.0 0.00 0.00 0.00 17 1022.7
20260504010710 66 328 0.0 0.0 0.00 0.00 0.00 17 1022.6
20260504010210 66 319 0.0 0.0 0.00 0.00 0.00 17 1022.6
20260504005710 66 240 0.0 0.0 0.00 0.00 0.00 17 1022.6
20260504005210 66 269 0.0 0.0 0.00 0.00 0.00 16 1022.5
20260504004713 66 209 0.0 0.0 0.00 0.00 0.00 17 1022.4
20260504004210 66 259 0.0 1.0 0.00 0.00 0.00 16 1022.3
20260504003713 66 293 0.0 0.0 0.00 0.00 0.00 17 1022.2
20260504003210 66 262 0.0 1.0 0.00 0.00 0.00 17 1022.1
20260504002710 66 276 0.0 0.0 0.00 0.00 0.00 16 1022.1
20260504002210 67 240 0.0 0.0 0.00 0.00 0.00 18 1022.0
20260504001710 67 256 0.0 0.0 0.00 0.00 0.00 19 1022.0
20260504001213 67 269 0.0 0.0 0.00 0.00 0.00 19 1021.9
20260504000713 66 352 0.0 0.0 0.00 0.00 0.00 21 1021.8
20260504000211 66 84 0.0 0.0 0.00 0.00 0.00 21 1021.7
20260503235710 67 73 0.0 0.0 0.00 0.00 0.00 19 1021.7
20260503235213 67 156 0.0 1.0 0.00 0.00 0.00 20 1021.7
20260503234710 67 205 0.0 1.0 0.00 0.00 0.00 22 1021.5
20260503234210 67 156 0.0 0.0 0.00 0.00 0.00 22 1021.4
20260503233710 67 134 0.0 1.0 0.00 0.00 0.00 22 1021.3
20260503233210 66 107 0.0 0.0 0.00 0.00 0.00 22 1021.3
20260503232710 66 139 0.0 0.0 0.00 0.00 0.00 22 1021.3
20260503232210 66 82 0.0 1.0 0.00 0.00 0.00 23 1021.3
20260503231710 66 215 0.0 1.0 0.00 0.00 0.00 23 1021.2
20260503231213 66 171 0.0 0.0 0.00 0.00 0.00 23 1021.2
20260503230713 66 134 0.0 0.0 0.00 0.00 0.00 23 1021.2
20260503230213 66 190 0.0 2.0 0.00 0.00 0.00 23 1021.2
20260503225713 66 179 0.0 0.0 0.00 0.00 0.00 25 1021.1
20260503225210 65 166 0.0 0.0 0.00 0.00 0.00 25 1021.2
20260503224713 66 128 0.0 1.0 0.00 0.00 0.00 24 1021.2
20260503224213 66 124 0.0 0.0 0.00 0.00 0.00 26 1021.2
20260503223713 65 169 0.0 0.0 0.00 0.00 0.00 26 1021.3
20260503223210 65 194 0.0 1.0 0.00 0.00 0.00 27 1021.2
20260503222713 65 146 0.0 3.0 0.00 0.00 0.00 26 1021.2
20260503222210 65 153 0.0 0.0 0.00 0.00 0.00 26 1021.2
20260503221713 65 155 0.0 9.0 0.00 0.00 0.00 26 1021.3
20260503221210 66 169 2.0 2.0 0.00 0.00 0.00 26 1021.3
20260503220710 66 150 0.0 3.0 0.00 0.00 0.00 27 1021.3
20260503220213 65 176 0.0 0.0 0.00 0.00 0.00 27 1021.2
20260503215710 65 156 0.0 10.0 0.00 0.00 0.00 27 1021.2
20260503215213 66 162 0.0 0.0 0.00 0.00 0.00 27 1021.2
20260503214710 65 156 0.0 11.0 0.00 0.00 0.00 27 1021.3
20260503214213 65 117 0.0 8.0 0.00 0.00 0.00 26 1021.2
20260503213713 65 163 0.0 8.0 0.00 0.00 0.00 26 1021.2
20260503213213 65 110 0.0 0.0 0.00 0.00 0.00 26 1021.2
20260503212710 64 221 0.0 5.0 0.00 0.00 0.00 26 1021.2
20260503212213 65 122 0.0 0.0 0.00 0.00 0.00 25 1021.2
20260503211710 64 159 0.0 0.0 0.00 0.00 0.00 26 1021.3
20260503211213 63 104 0.0 0.0 0.00 0.00 0.00 28 1021.4
20260503210713 62 78 0.0 0.0 0.00 0.00 0.00 28 1021.4
20260503210210 63 176 0.0 1.0 0.00 0.00 0.00 27 1021.3
20260503205710 63 159 0.0 5.0 0.00 0.00 0.00 27 1021.5
20260503205213 64 73 0.0 1.0 0.00 0.00 0.00 27 1021.4
20260503204713 64 149 0.0 0.0 0.00 0.00 0.00 28 1021.5
20260503204213 63 155 0.0 0.0 0.00 0.00 0.00 28 1021.5
20260503203710 65 152 0.0 1.0 0.00 0.00 0.00 26 1021.5
20260503203210 64 77 0.0 1.0 0.00 0.00 0.00 28 1021.6
20260503202713 63 204 0.0 0.0 0.00 0.00 0.00 27 1021.6
20260503202213 64 159 0.0 0.0 0.00 0.00 0.00 26 1021.7
20260503201710 64 173 0.0 0.0 0.00 0.00 0.00 28 1021.6
20260503201213 64 232 0.0 3.0 0.00 0.00 0.00 26 1021.6
20260503200710 65 115 0.0 0.0 0.00 0.00 0.00 28 1021.6
20260503200210 65 243 0.0 1.0 0.00 0.00 0.00 27 1021.6
20260503195710 66 158 0.0 0.0 0.00 0.00 0.00 28 1021.5
20260503195210 65 126 0.0 0.0 0.00 0.00 0.00 28 1021.6
20260503194710 65 160 0.0 1.0 0.00 0.00 0.00 28 1021.6
20260503194210 64 176 0.0 0.0 0.00 0.00 0.00 29 1021.5
20260503193710 63 226 0.0 0.0 0.00 0.00 0.00 29 1021.7
20260503193210 64 71 0.0 0.0 0.00 0.00 0.00 29 1021.7
20260503192713 64 177 0.0 0.0 0.00 0.00 0.00 29 1021.6
20260503192210 65 104 0.0 0.0 0.00 0.00 0.00 29 1021.6
20260503191710 65 174 0.0 0.0 0.00 0.00 0.00 29 1021.6
20260503191210 65 160 0.0 0.0 0.00 0.00 0.00 30 1021.7
20260503190713 65 206 0.0 0.0 0.00 0.00 0.00 29 1021.6
20260503190213 64 187 0.0 0.0 0.00 0.00 0.00 30 1021.6
20260503185710 64 66 0.0 0.0 0.00 0.00 0.00 32 1021.6
20260503185210 64 139 0.0 0.0 0.00 0.00 0.00 31 1021.8
20260503184713 63 160 0.0 0.0 0.00 0.00 0.00 32 1021.8
20260503184213 63 174 0.0 0.0 0.00 0.00 0.00 31 1021.8
20260503183713 62 170 0.0 0.0 0.00 0.00 0.00 33 1021.8
20260503183213 62 207 0.0 0.0 0.00 0.00 0.00 32 1021.9
20260503182713 61 203 0.0 0.0 0.00 0.00 0.00 33 1021.9
20260503182210 61 89 0.0 0.0 0.00 0.00 0.00 33 1021.9
20260503181713 61 166 0.0 0.0 0.00 0.00 0.00 32 1021.9
20260503181213 62 104 0.0 0.0 0.00 0.00 0.00 32 1021.9
20260503180713 62 128 0.0 0.0 0.00 0.00 0.00 32 1021.9
20260503180213 62 145 0.0 0.0 0.00 0.00 0.00 34 1021.9
20260503175710 61 101 0.0 1.0 0.00 0.00 0.00 32 1021.8
20260503175213 62 146 0.0 0.0 0.00 0.00 0.00 33 1021.9
20260503174713 61 114 0.0 0.0 0.00 0.00 0.00 36 1021.9
20260503174213 59 126 0.0 1.0 0.00 0.00 0.00 37 1021.9
20260503173710 60 50 0.0 0.0 0.00 0.00 0.00 37 1022.0
20260503173213 59 150 0.0 0.0 0.00 0.00 0.00 39 1022.1
20260503172710 58 110 0.0 1.0 0.00 0.00 0.00 39 1022.2
20260503172213 58 163 0.0 0.0 0.00 0.00 0.00 40 1022.3
20260503171713 59 70 0.0 0.0 0.00 0.00 0.00 40 1022.1
20260503171210 58 79 0.0 0.0 0.00 0.00 0.00 42 1022.1
20260503170710 58 46 0.0 0.0 0.00 0.00 0.00 40 1022.1
20260503170210 58 79 0.0 1.0 0.00 0.00 0.00 42 1022.1
20260503160213 54 50 0.0 0.0 0.00 0.00 0.00 47 1022.1
20260503150710 50 75 0.0 0.0 0.00 0.00 0.00 57 1022.4
20260503150213 49 71 0.0 0.0 0.00 0.00 0.00 60 1022.6
20260503140213 46 11 0.0 0.0 0.00 0.00 0.00 65 1022.6
20260503131210 44 26 0.0 0.0 0.00 0.00 0.00 66 1023.4
20260503130710 44 5 0.0 0.0 0.00 0.00 0.00 65 1023.4
20260503130213 44 6 0.0 0.0 0.00 0.00 0.00 63 1023.5
20260503120210 40 109 0.0 0.0 0.00 0.00 0.00 68 1023.8
20260503110713 42 326 0.0 0.0 0.00 0.00 0.00 61 1024.4
20260503110210 42 326 0.0 0.0 0.00 0.00 0.00 60 1024.4
20260503100210 42 243 0.0 0.0 0.00 0.00 0.00 63 1025.4
20260503090213 42 247 0.0 0.0 0.00 0.00 0.00 67 1026.2
20260503081213 43 219 0.0 0.0 0.00 0.00 0.00 65 1026.9
20260503080713 43 212 0.0 0.0 0.00 0.00 0.00 65 1027.0
20260503080213 43 188 0.0 0.0 0.00 0.00 0.00 64 1027.1
20260503072713 44 193 0.0 0.0 0.00 0.00 0.00 61 1027.6
20260503072210 45 212 0.0 0.0 0.00 0.00 0.00 61 1027.6
20260503071713 45 200 0.0 0.0 0.00 0.00 0.00 60 1027.7
20260503071213 45 234 0.0 0.0 0.00 0.00 0.00 60 1027.7
20260503070713 45 152 0.0 0.0 0.00 0.00 0.00 60 1027.8
20260503070213 45 200 0.0 0.0 0.00 0.00 0.00 60 1027.9
20260503060213 46 197 0.0 0.0 0.00 0.00 0.00 57 1028.1
20260503054713 46 188 0.0 0.0 0.00 0.00 0.00 57 1028.1
20260503054210 47 176 0.0 0.0 0.00 0.00 0.00 56 1028.1
20260503053710 47 200 0.0 0.0 0.00 0.00 0.00 55 1028.2
20260503053210 47 193 0.0 0.0 0.00 0.00 0.00 55 1028.3
20260503052710 47 188 0.0 0.0 0.00 0.00 0.00 54 1028.2
20260503052213 47 232 0.0 0.0 0.00 0.00 0.00 54 1028.3
20260503051710 47 154 0.0 0.0 0.00 0.00 0.00 54 1028.3
20260503051213 47 222 0.0 0.0 0.00 0.00 0.00 53 1028.3
20260503050713 47 197 0.0 0.0 0.00 0.00 0.00 53 1028.3
20260503050210 47 193 0.0 0.0 0.00 0.00 0.00 54 1028.2
20260503045713 47 219 0.0 0.0 0.00 0.00 0.00 54 1028.2
20260503045210 47 181 0.0 0.0 0.00 0.00 0.00 53 1028.2
20260503044713 47 149 0.0 0.0 0.00 0.00 0.00 53 1028.2
20260503044210 47 155 0.0 0.0 0.00 0.00 0.00 52 1028.2
20260503043710 48 155 0.0 0.0 0.00 0.00 0.00 50 1028.2
20260503043213 48 206 0.0 0.0 0.00 0.00 0.00 47 1028.2
20260503042713 48 197 0.0 0.0 0.00 0.00 0.00 46 1028.1
20260503042213 48 193 0.0 0.0 0.00 0.00 0.00 44 1028.1
20260503041710 49 189 0.0 0.0 0.00 0.00 0.00 43 1028.0
20260503041213 48 152 0.0 0.0 0.00 0.00 0.00 43 1028.0
20260503040713 49 187 0.0 0.0 0.00 0.00 0.00 41 1027.9
20260503040210 49 241 0.0 0.0 0.00 0.00 0.00 39 1027.8
20260503035713 49 252 0.0 0.0 0.00 0.00 0.00 39 1027.7
20260503035213 49 250 0.0 0.0 0.00 0.00 0.00 39 1027.7
20260503034713 49 243 0.0 0.0 0.00 0.00 0.00 40 1027.6